Wind_Speed
8 8 8 7 7 7 6 6 7 7 7 7 8 8 8 8 8 8 8 8 9 9 9 9 9 9 9 9 9 9 9 10 10 10 9 9 9 9 8 8 8 8 8 8 8 8 7 8 8 9 8 8 8 8 8 8 9 8 8 7 6 6 6 6 7 9 10 9 10 11 14 15 13 12 14 16 15 13 11 9 11 14 13 13 14 15 15 14
10 9 9 9 9 8 8 9 9 9 9 10 10 10 10 10 10 10 9 10 10 10 10 10 10 10 10 10 10 9 10 10 10 9 9 9 8 7 6 6 7 7 7 8 8 9 9 9 10 10 9 8 8 7 7 8 8 8 9 8 6 6 5 5 7 9 11 10 9 9 12 13 12 12 12 14 15 13 10 7 9 10 8 10 12 13 13 12
11 11 11 11 10 10 11 11 11 11 12 12 12 12 11 11 11 11 11 11 12 12 11 11 11 11 11 10 10 10 9 9 9 9 8 7 6 6 6 7 7 7 8 9 10 10 9 10 9 9 8 8 7 6 7 8 9 9 9 7 6 6 4 5 8 9 11 10 9 9 11 11 11 13 13 14 16 13 10 9 9 6 4 7 10 12 12 10
13 12 12 12 12 13 13 13 13 13 13 13 13 13 13 13 13 13 13 13 13 13 13 12 11 11 11 10 10 9 9 9 9 8 7 6 6 7 8 8 8 8 9 9 9 9 8 8 7 7 7 7 6 6 7 9 10 10 9 8 8 8 6 6 9 10 10 11 12 12 12 12 12 13 13 14 16 11 7 10 10 7 6 8 11 11 11 11
14 14 14 14 14 14 15 15 15 15 15 15 15 15 15 15 14 14 14 14 14 14 13 12 12 11 11 10 10 10 10 9 8 7 7 8 9 8 8 8 8 8 8 8 8 8 9 8 7 7 7 8 8 8 9 11 13 12 10 10 10 11 9 8 10 11 11 13 13 13 14 14 13 12 11 13 14 11 9 10 8 8 9 11 12 13 13 12
16 16 16 16 16 17 17 17 16 16 16 16 16 16 16 16 15 15 15 15 15 14 14 13 12 12 11 11 11 10 10 9 9 9 10 10 10 9 9 8 9 9 9 9 9 10 10 10 10 10 10 10 11 11 12 13 14 15 13 12 13 15 13 10 13 14 14 15 14 14 16 15 14 12 12 12 12 11 12 10 9 10 10 11 13 14 15 15
18 18 18 18 19 19 18 18 18 18 18 18 18 17 17 16 16 16 15 15 15 15 14 14 14 13 13 13 12 12 10 10 12 12 11 11 10 11 10 10 11 11 11 11 12 13 13 13 13 13 13 13 13 13 14 15 16 17 16 15 15 16 15 14 16 15 14 15 15 16 17 15 13 15 14 11 10 10 10 10 12 13 10 10 12 14 16 17
20 20 20 20 20 20 20 20 19 19 19 19 18 18 17 17 17 16 16 16 16 16 15 15 15 15 15 15 14 14 11 11 14 14 12 13 12 13 13 13 14 14 14 15 15 16 15 15 14 15 15 15 16 15 16 17 17 19 18 17 17 17 17 17 17 15 15 16 16 17 18 13 12 17 16 10 8 9 8 11 15 16 13 11 12 14 17 18
22 22 22 22 22 22 21 21 20 20 20 19 19 19 18 18 18 17 17 17 17 17 16 17 17 16 17 16 17 16 12 13 16 15 15 15 15 16 16 16 17 17 17 17 17 17 16 16 16 16 16 17 18 18 17 18 18 19 19 20 19 19 18 17 16 14 15 17 16 17 17 13 12 17 15 8 8 9 10 15 17 17 16 15 15 17 18 19
24 23 23 23 23 22 22 21 21 21 20 20 20 20 19 19 19 19 19 19 19 18 18 18 18 18 19 18 19 18 13 15 17 17 18 18 18 19 19 19 19 19 19 18 18 18 17 17 17 17 17 18 19 19 18 18 19 19 20 21 21 20 19 17 17 14 14 16 16 16 16 13 14 17 11 5 9 12 14 18 19 19 19 18 18 18 18 19
24 24 24 23 23 23 22 22 22 22 21 21 21 21 20 20 20 20 20 21 21 21 20 21 21 21 21 21 22 20 17 18 20 20 20 20 20 20 20 21 21 20 19 19 19 18 18 18 18 18 18 18 19 18 19 19 20 20 21 22 20 20 20 18 16 14 14 15 14 15 16 15 16 16 9 4 12 16 18 21 22 21 19 19 19 19 19 19
25 24 24 24 23 23 23 23 23 23 23 22 22 22 22 22 22 22 22 23 23 23 23 23 23 23 23 24 23 21 20 21 20 20 21 20 21 21 21 21 21 21 21 20 20 19 19 19 19 18 18 19 19 19 19 19 20 20 21 22 21 21 20 16 14 14 15 15 15 16 17 16 16 13 8 9 15 18 20 23 23 21 19 19 20 20 21 21
25 24 24 24 24 24 24 24 24 24 24 24 24 24 24 24 24 24 24 24 24 24 24 24 25 25 26 25 23 23 23 22 21 21 20 20 21 21 21 21 21 21 21 20 20 20 20 20 20 19 19 20 20 20 20 20 21 21 21 23 22 22 20 15 13 15 16 16 16 17 17 17 14 11 11 14 18 19 21 24 23 21 20 21 22 23 24 25
25 25 25 25 25 25 25 25 26 26 25 25 25 25 25 25 25 25 25 25 25 25 25 26 26 26 27 26 24 24 23 23 23 22 21 21 21 21 21 22 22 22 21 20 20 20 20 21 20 20 20 20 21 21 22 22 21 20 21 22 21 21 20 15 15 18 18 16 17 16 17 18 15 13 15 17 19 20 22 23 22 21 22 23 24 25 27 28
26 26 26 26 26 26 26 27 27 26 26 27 27 26 26 26 26 26 26 25 26 26 26 26 26 27 28 27 26 26 25 24 24 23 22 22 21 21 21 21 22 21 20 19 19 20 20 21 20 20 20 20 20 21 22 21 20 19 20 21 20 20 20 17 18 20 18 16 16 16 16 17 18 16 15 18 20 20 19 21 21 21 23 25 26 28 29 28
27 27 27 27 27 27 27 28 28 27 27 27 27 27 27 27 26 26 26 26 26 26 26 27 26 28 28 27 26 25 24 23 22 22 22 21 21 21 20 21 21 21 21 21 21 21 21 21 20 20 20 20 20 20 20 19 19 20 21 22 20 20 20 19 19 19 18 16 15 17 17 19 20 16 15 18 19 17 17 19 21 23 24 26 27 28 27 26
28 28 28 28 28 28 28 28 28 28 28 27 27 27 27 27 27 27 27 27 27 27 27 28 28 29 29 27 26 25 24 24 24 23 23 23 23 23 23 23 22 23 23 22 22 21 21 20 20 20 19 18 19 18 18 19 20 21 21 21 20 19 20 22 21 19 18 16 15 17 20 22 20 15 13 15 15 15 17 20 22 24 25 26 27 25 24 23
29 29 28 28 29 29 29 28 28 28 28 27 27 27 27 28 28 28 28 28 28 28 29 29 28 29 28 25 24 24 23 23 22 21 21 22 22 21 21 21 20 21 21 21 22 21 20 19 19 18 19 20 20 20 21 22 22 22 20 20 20 20 23 25 24 20 18 18 17 19 21 22 19 13 13 14 14 16 18 20 22 24 26 26 24 21 21 21
31 30 29 29 29 29 29 28 28 28 28 28 28 28 28 29 29 29 28 29 29 28 28 28 27 28 27 24 24 24 23 23 22 22 22 23 23 23 23 22 23 23 22 22 22 21 20 21 21 21 24 25 24 24 25 24 22 21 20 21 22 23 26 27 25 21 19 20 20 20 20 19 15 12 14 16 16 18 20 22 24 25 26 26 22 19 18 18
31 31 30 30 30 30 30 29 29 28 28 28 28 28 28 29 29 29 29 29 29 29 29 29 29 29 29 28 28 28 28 28 27 27 27 27 28 28 28 28 27 26 26 24 23 23 24 25 27 29 29 28 25 23 23 21 20 20 21 22 23 26 27 24 21 18 18 20 20 18 18 16 13 14 17 19 19 21 22 24 24 24 25 25 22 18 17 18
32 31 31 31 31 31 31 30 29 29 29 29 29 29 29 29 29 30 30 30 29 29 29 29 30 30 29 29 29 29 29 29 28 28 28 29 30 30 30 29 28 28 27 25 25 26 26 29 33 31 27 23 20 19 20 21 20 20 21 22 23 25 24 18 15 15 15 17 17 16 18 17 15 17 20 21 23 24 25 24 23 23 24 23 21 18 17 19
32 31 31 32 32 32 31 31 30 30 29 29 29 29 29 29 29 29 30 32 30 30 30 30 30 30 28 28 28 27 29 28 28 28 28 29 30 30 30 30 29 29 27 25 26 26 26 30 28 22 19 19 18 19 20 20 20 20 20 22 22 21 18 13 10 12 13 14 16 17 20 19 17 21 22 23 26 25 22 19 20 22 22 21 21 19 20 21
33 32 32 33 33 33 32 31 31 30 30 29 29 29 29 29 29 29 30 32 32 30 30 31 31 30 27 27 27 26 28 28 27 28 28 29 30 30 30 29 28 27 26 26 26 25 25 24 16 10 14 18 19 21 21 21 21 20 20 21 20 17 15 12 11 13 14 17 20 22 24 23 22 24 23 21 22 19 15 15 17 20 20 20 21 22 22 23
34 33 33 34 34 34 33 32 32 31 30 30 29 28 28 28 29 29 29 32 34 33 31 31 31 30 27 25 25 25 26 25 26 27 28 29 29 29 29 27 25 24 24 23 22 24 24 21 16 13 12 13 15 18 19 19 19 18 18 19 18 15 13 15 15 15 18 21 22 22 25 23 21 21 19 15 15 14 14 17 18 19 20 21 23 24 23 22
35 34 34 34 35 35 34 33 32 31 30 29 28 28 28 28 28 28 27 29 34 34 31 32 31 29 28 25 24 26 27 27 27 27 27 29 28 27 27 24 23 24 22 20 20 23 24 20 20 20 17 15 15 16 16 16 16 16 16 17 15 13 13 15 15 16 19 19 18 17 13 11 13 15 15 16 17 19 20 22 21 21 22 23 24 24 23 22
37 36 35 35 35 35 34 33 32 31 30 29 28 28 27 27 26 25 24 25 33 36 32 30 29 27 26 25 25 26 27 29 29 28 28 28 28 27 26 25 25 23 21 19 19 22 23 19 18 19 19 19 18 18 17 15 16 16 14 13 13 12 13 15 15 16 15 13 13 12 7 11 19 18 19 22 23 23 23 22 22 23 25 25 25 24 22 22
38 37 37 36 35 35 34 33 32 31 30 28 28 28 27 26 23 22 20 17 24 29 25 23 23 23 22 21 24 25 24 23 24 27 29 28 27 27 26 26 25 21 19 18 17 18 18 13 14 15 16 18 17 14 12 13 16 16 13 12 13 13 14 14 16 17 17 18 18 15 13 20 25 20 19 21 20 19 19 19 22 25 26 26 25 23 22 22
39 37 36 35 35 34 33 32 33 31 28 27 28 28 26 24 22 19 13 6 9 13 11 14 16 17 18 18 20 22 22 19 17 19 22 23 23 24 23 24 22 18 17 18 18 14 9 9 13 13 13 14 12 7 6 10 14 14 13 14 16 16 17 17 18 17 19 21 17 14 15 16 19 19 15 14 16 17 17 18 22 24 25 25 23 22 23 22
38 37 36 34 34 34 33 34 33 30 29 29 28 28 26 24 21 17 9 6 8 8 8 11 13 14 16 16 16 18 19 18 15 14 15 16 17 18 18 18 18 17 16 18 18 14 10 10 12 13 12 12 9 8 9 11 12 14 14 16 17 18 20 19 19 18 18 18 12 13 16 13 16 20 13 12 16 16 16 18 20 23 24 25 23 23 22 21
37 36 35 34 36 35 34 35 33 30 30 30 29 29 26 25 23 15 8 10 11 10 11 13 14 16 16 17 17 16 17 16 16 15 13 13 13 13 14 13 14 15 16 16 16 16 16 13 13 13 12 11 11 11 13 13 15 16 16 17 18 20 21 20 21 18 13 12 11 14 18 14 10 9 3 9 13 11 12 15 17 20 23 24 24 23 21 20
38 36 34 35 37 36 36 35 32 30 30 30 30 29 26 25 24 15 9 16 15 11 15 16 16 19 18 18 18 17 17 17 16 15 12 12 12 13 14 13 13 13 15 18 16 16 19 18 16 16 15 14 14 14 15 15 16 17 17 18 17 15 15 15 16 12 6 6 6 8 13 16 15 6 2 4 7 8 10 10 11 14 16 19 21 21 21 20
40 39 36 36 37 36 37 35 31 29 30 30 29 30 29 24 23 21 14 13 12 10 16 19 19 22 20 17 17 15 16 17 17 15 13 12 13 13 12 11 11 11 12 16 16 16 20 20 19 19 18 17 16 16 16 17 17 18 19 18 11 5 5 5 5 3 5 10 11 10 9 14 22 22 17 13 9 8 9 7 8 9 11 15 17 19 20 20
40 40 38 39 39 39 39 36 33 32 30 29 29 33 34 22 19 30 26 17 10 6 12 18 20 22 21 18 16 14 15 16 16 16 14 15 15 14 13 12 13 13 11 12 12 13 15 16 18 20 20 20 20 21 20 18 17 17 18 16 10 2 2 3 4 2 6 11 12 14 11 10 18 21 20 20 19 17 15 13 12 11 11 12 15 18 20 21
40 41 39 40 40 39 39 35 33 33 31 31 32 33 33 20 15 26 30 26 22 13 11 18 20 20 20 19 16 14 15 15 15 16 16 17 17 17 17 17 16 16 15 14 12 11 11 11 12 14 16 16 17 19 18 18 18 18 17 16 14 11 6 4 4 3 4 6 5 8 7 6 10 11 10 11 13 15 18 19 20 19 17 16 17 19 21 23
39 39 38 40 38 37 37 34 32 33 32 34 36 34 35 27 17 19 26 29 29 21 14 17 20 19 18 18 16 15 15 15 15 16 17 18 18 18 17 17 17 17 16 15 11 10 12 14 14 14 16 16 15 16 16 17 19 19 18 18 19 20 18 13 10 10 9 7 6 9 10 12 15 17 15 10 9 10 11 15 18 19 20 19 19 20 22 24
36 35 36 38 37 36 36 35 34 34 33 37 40 40 42 38 25 20 23 26 29 27 19 18 19 19 17 17 17 16 15 16 15 14 15 16 18 21 21 18 17 17 17 16 13 11 12 15 15 14 17 18 18 18 18 18 18 15 16 19 19 21 21 17 13 15 10 6 9 12 14 18 21 24 25 19 16 16 13 15 17 18 19 19 19 21 23 25
33 33 35 35 33 34 35 36 35 34 33 39 45 45 46 43 33 25 20 21 27 30 26 21 20 19 18 17 17 18 17 16 16 16 18 17 17 20 23 22 22 21 20 20 18 17 18 20 21 18 18 18 18 18 19 21 21 19 19 20 18 15 17 15 8 5 3 3 8 12 15 18 16 18 23 20 17 18 16 16 18 18 20 21 23 25 26 28
32 31 33 32 30 31 31 32 33 34 35 41 47 47 45 43 38 32 25 22 25 30 31 27 23 20 20 20 20 20 21 21 20 20 21 21 18 17 17 18 21 22 21 20 19 18 19 21 22 21 19 19 19 20 21 22 23 25 24 22 18 12 11 13 8 3 4 3 4 8 14 20 21 22 23 20 17 17 15 14 16 19 22 24 26 27 28 29
31 31 32 33 30 28 28 30 32 36 41 46 49 48 44 42 39 35 32 27 24 26 29 28 24 22 22 23 22 21 22 23 23 22 22 21 19 18 17 17 19 19 19 19 19 19 19 18 18 17 16 17 20 23 25 25 23 24 25 24 24 19 14 16 14 10 6 3 4 6 9 16 21 20 17 13 13 13 11 11 13 16 20 23 25 27 29 30
32 33 34 33 31 28 29 33 36 41 47 49 51 49 45 42 38 35 34 31 26 25 26 25 25 24 24 23 22 21 21 21 21 22 21 20 18 17 17 19 20 20 19 18 18 19 20 19 20 19 15 16 21 23 24 24 22 23 26 26 27 25 22 18 18 18 13 4 2 3 6 18 24 17 11 10 12 12 11 13 14 15 18 22 25 28 29 29
35 35 36 33 31 31 34 38 40 45 49 50 51 49 45 41 36 33 34 32 28 26 26 26 26 27 27 25 24 22 21 22 22 22 23 24 23 21 20 21 21 20 20 19 19 19 19 20 24 26 22 21 23 25 25 24 23 24 26 28 29 30 27 16 10 19 21 12 9 5 6 22 30 20 12 11 14 16 18 20 19 17 18 21 25 28 30 29
35 35 36 35 32 34 39 41 40 42 46 49 50 47 44 41 36 32 33 33 31 29 28 27 27 29 30 29 28 25 24 25 26 26 26 28 28 27 26 24 23 22 21 20 21 21 21 21 25 30 30 27 24 24 24 23 23 25 26 28 29 29 29 21 11 16 20 17 18 12 8 22 34 28 21 18 20 24 27 26 20 15 16 19 23 28 29 29
32 33 35 37 36 38 43 45 43 43 44 46 47 44 42 41 37 33 32 32 31 30 29 28 28 29 30 29 28 27 26 26 27 28 29 30 31 31 30 30 29 27 25 24 23 22 23 24 26 29 31 30 27 25 25 24 24 26 27 30 32 30 31 29 25 23 18 15 17 9 5 19 29 28 26 23 21 25 26 23 18 16 17 19 24 29 30 30
31 32 35 36 36 39 44 46 47 47 47 47 45 41 41 40 38 36 34 32 30 29 28 28 28 27 26 26 26 26 26 25 26 28 30 31 32 32 32 32 32 31 29 27 23 22 22 22 22 20 17 17 17 16 19 24 25 26 27 29 30 31 30 30 29 25 17 17 21 13 10 21 24 24 27 25 22 25 26 22 20 21 22 23 28 30 31 31
35 34 36 36 35 37 41 44 47 48 48 49 45 39 36 37 37 37 35 31 29 27 27 27 27 26 25 25 26 27 27 27 26 27 29 30 30 31 31 32 32 32 31 29 27 26 24 23 23 19 11 10 11 10 13 21 24 26 28 28 29 30 32 31 29 22 14 14 20 19 19 26 29 30 33 31 30 30 26 21 20 22 25 28 30 30 29 29
36 36 38 40 40 40 42 43 45 45 45 46 44 38 34 32 32 32 30 29 27 26 25 26 26 26 27 29 29 29 30 31 30 30 32 31 28 28 29 30 31 31 31 31 30 29 28 29 30 30 27 26 26 23 21 22 23 26 29 30 31 32 34 34 29 24 21 17 20 27 28 28 33 38 38 36 35 31 26 21 20 21 25 28 29 29 32 36
30 32 34 36 36 37 40 43 44 42 40 39 37 36 35 33 31 30 29 28 27 25 25 27 29 30 31 32 31 32 33 32 32 34 35 34 32 30 29 30 30 30 30 30 28 27 28 29 31 34 35 36 35 32 29 27 27 28 29 31 33 32 33 35 32 30 30 24 25 35 37 32 39 46 43 38 36 33 31 28 24 24 28 32 36 39 42 43
25 26 27 28 27 27 31 36 38 38 36 35 33 34 35 35 33 32 31 29 28 27 26 29 31 32 33 32 32 33 34 33 34 36 35 35 35 34 33 32 32 32 31 29 29 28 28 30 33 33 33 35 34 33 33 33 31 30 31 34 36 35 34 36 35 35 34 30 31 39 39 36 43 47 43 40 38 35 33 31 30 32 37 41 43 44 45 45
25 25 25 26 28 27 27 27 28 28 29 29 30 32 34 35 34 33 31 30 29 28 28 31 32 31 32 33 33 35 36 35 35 36 34 34 34 34 35 35 34 34 34 32 32 31 31 34 36 35 35 35 34 34 35 35 35 36 39 42 42 40 37 36 37 38 36 35 38 41 40 42 47 48 46 45 43 41 39 38 40 43 44 44 44 44 44 43
26 26 26 26 28 29 29 29 28 28 27 27 29 32 33 33 33 32 31 31 30 29 30 32 32 31 31 32 33 36 37 36 36 35 33 32 33 33 34 34 33 32 31 30 30 29 30 31 30 31 31 30 31 32 32 32 32 33 39 44 43 39 38 40 42 41 39 40 43 43 44 49 51 48 46 44 43 43 42 42 44 43 41 41 41 40 39 37
28 28 27 28 29 29 30 31 31 31 31 31 33 35 34 33 33 31 30 30 30 30 32 32 31 31 32 32 34 37 36 33 33 33 31 31 31 31 32 32 31 29 28 28 27 28 29 29 28 28 26 27 31 29 27 29 29 31 41 47 44 42 45 47 47 44 44 45 43 41 45 50 47 42 40 38 37 38 38 38 38 37 35 36 36 36 35 34
30 30 30 30 31 31 31 31 31 32 35 36 36 36 34 33 32 31 31 31 31 32 32 32 32 33 34 35 36 35 32 29 29 28 28 30 30 30 31 30 30 29 28 27 28 29 30 29 30 28 22 24 29 28 27 27 22 28 47 52 47 48 50 47 45 45 45 43 39 39 43 43 38 33 33 33 33 33 33 33 33 34 35 35 35 34 33 32
Wind_Direction
218 218 221 226 233 241 249 258 263 267 271 271 271 272 271 271 270 271 272 274 277 278 280 283 284 286 288 288 289 291 291 291 292 294 293 289 288 289 286 284 283 280 279 278 276 275 275 274 275 280 283 286 291 295 296 294 292 291 290 292 286 272 259 253 248 248 259 265 270 279 285 292 302 301 296 295 298 304 315 325 307 302 306 302 292 286 285 286
228 229 232 237 243 249 256 261 265 269 271 271 272 272 272 273 273 273 273 275 276 279 282 284 287 289 289 290 289 289 290 291 291 293 293 291 291 291 287 285 285 284 281 277 274 276 277 278 278 281 283 285 290 294 294 291 289 291 294 299 296 282 270 251 246 253 265 270 275 284 286 292 303 299 295 298 297 301 313 301 282 293 301 294 294 296 300 304
236 238 241 246 250 255 259 263 266 270 271 272 272 272 274 274 275 276 276 277 278 279 281 283 285 286 286 286 286 287 287 288 290 292 292 292 294 295 293 292 291 286 282 279 281 285 285 283 283 284 285 288 293 297 294 289 287 288 292 298 291 281 269 245 249 253 263 276 285 287 286 290 294 292 297 299 296 306 314 287 280 289 269 275 295 302 303 301
242 244 248 253 257 261 263 266 269 271 272 273 274 274 275 275 277 278 278 279 279 280 281 282 283 284 285 285 287 290 289 291 292 290 291 294 297 298 297 296 293 287 284 285 289 293 292 292 292 288 289 291 292 291 289 286 285 286 289 291 285 280 266 247 256 258 264 281 289 290 288 285 282 285 294 293 294 314 314 284 287 290 270 275 291 298 294 284
246 250 254 258 262 265 267 268 270 271 272 273 275 276 276 276 277 278 279 279 279 280 281 282 283 283 285 287 290 293 297 297 292 288 293 297 298 297 295 293 289 285 285 289 294 296 295 298 297 292 290 289 287 285 285 285 286 287 289 289 287 284 276 260 264 271 281 288 290 293 290 285 285 287 286 284 292 309 304 288 293 298 293 283 279 280 281 280
251 254 258 261 264 266 267 269 270 271 272 274 274 275 276 276 276 276 277 277 278 280 281 283 283 284 286 288 290 293 298 295 287 288 292 293 294 294 292 288 284 283 287 291 292 292 293 294 293 290 289 287 286 287 285 285 288 288 289 288 286 287 286 279 278 287 296 294 295 295 289 290 296 292 283 284 289 292 290 291 306 313 304 281 270 268 270 273
253 256 259 262 263 265 266 267 269 271 272 272 273 274 274 274 274 274 275 276 278 279 282 284 285 287 287 289 289 289 292 288 286 288 289 289 290 289 287 284 283 285 288 290 290 289 288 289 288 286 286 285 285 285 285 285 286 286 288 288 284 284 287 288 288 295 299 297 299 295 292 302 303 292 291 296 286 274 273 286 304 308 298 279 273 268 265 266
255 257 259 261 262 263 265 266 268 269 270 270 271 271 271 271 272 273 274 275 276 278 281 283 284 286 286 287 286 285 288 285 285 287 286 286 285 284 284 282 282 284 286 287 288 287 286 285 283 283 284 284 283 282 282 284 284 285 288 287 283 283 287 290 293 301 303 298 297 295 299 310 300 291 300 308 284 264 266 286 298 299 294 288 278 270 266 265
256 257 259 260 261 262 264 265 265 266 267 267 268 268 269 270 271 272 273 274 275 277 278 279 281 282 282 283 281 281 285 283 282 284 283 283 283 283 283 281 281 282 283 284 284 284 284 282 281 281 282 282 282 282 282 283 282 284 287 286 286 288 290 292 297 305 302 295 294 295 301 306 290 291 305 309 272 258 271 289 297 297 295 291 281 273 269 266
255 256 257 258 259 260 261 262 262 263 263 264 265 266 267 268 270 271 272 273 274 275 276 276 277 277 278 279 278 279 282 279 278 280 281 281 281 281 281 281 280 280 280 280 280 279 278 276 276 277 277 279 280 281 282 281 281 283 284 284 289 291 292 296 301 302 293 290 293 291 296 297 285 290 308 305 266 266 279 289 296 298 294 288 282 275 271 267
254 255 255 256 257 258 259 259 260 260 261 262 264 265 267 268 269 270 271 272 273 274 275 276 276 276 277 276 277 280 279 275 275 276 277 278 278 278 278 278 279 278 278 277 276 275 274 273 273 273 274 277 279 280 281 280 282 284 284 285 289 290 293 301 303 298 289 289 287 282 288 290 284 290 306 284 269 275 281 289 296 297 291 283 278 273 272 272
253 254 254 255 256 257 258 259 259 260 261 262 264 265 266 267 268 270 270 272 273 274 275 276 276 276 276 276 277 280 278 275 275 275 274 275 275 275 275 275 276 275 275 275 275 274 273 272 272 271 271 274 277 279 280 281 281 283 285 286 288 288 293 300 296 293 292 288 280 275 281 283 285 291 288 264 268 277 284 289 293 292 286 280 276 276 277 278
253 254 255 255 257 258 259 260 260 261 262 263 264 265 266 267 268 269 270 272 273 275 276 276 277 277 277 277 278 279 278 277 276 275 274 273 273 273 273 273 272 272 272 273 273 274 272 272 272 270 270 272 274 276 277 279 279 282 284 286 289 291 294 297 291 289 287 281 276 277 277 277 281 279 268 265 269 279 287 289 290 287 284 281 280 282 283 282
254 255 256 257 258 259 260 261 262 263 264 265 265 266 267 268 269 270 271 273 274 275 276 276 276 277 277 277 278 278 278 278 277 276 275 274 272 272 271 271 271 270 270 271 271 271 270 270 270 269 270 271 273 275 275 276 278 282 282 283 287 289 292 295 290 286 282 275 270 272 273 271 273 268 263 269 276 286 289 287 287 286 284 284 284 283 283 286
255 256 258 258 259 260 261 262 262 263 264 265 266 267 268 268 269 270 271 272 273 273 274 274 275 276 276 277 277 276 277 277 277 277 275 274 273 271 269 269 269 269 269 269 268 267 267 267 266 267 269 270 273 273 273 275 278 280 279 280 285 285 287 288 286 283 278 269 259 263 271 269 272 272 269 278 288 292 287 284 288 286 284 285 284 285 287 292
255 256 257 259 260 260 261 262 263 264 265 265 266 267 267 268 268 269 270 271 271 272 273 273 273 274 275 277 277 277 278 277 276 276 275 275 272 269 268 266 267 268 269 269 268 266 265 264 263 263 264 266 268 270 273 275 276 277 277 279 283 284 284 285 284 281 275 268 260 262 267 267 273 279 282 290 294 290 282 282 286 285 284 285 285 289 294 299
255 255 256 257 258 259 260 261 263 263 264 264 265 265 266 266 267 268 269 270 270 272 272 272 274 274 275 276 277 277 278 276 276 275 274 273 271 269 267 265 265 265 265 267 267 266 265 262 260 260 261 262 264 265 264 265 273 281 283 283 283 279 278 279 281 279 274 271 265 265 269 273 280 290 292 289 285 281 279 281 284 284 285 286 289 294 299 302
256 255 255 256 256 257 258 259 260 261 261 262 263 264 265 266 267 268 268 270 270 272 273 274 275 274 274 276 276 276 274 273 273 273 272 271 270 269 267 264 261 260 261 263 266 266 264 261 258 256 256 257 259 260 260 269 283 288 285 283 280 274 270 274 278 279 275 270 264 266 273 279 285 292 288 280 275 276 278 281 284 285 285 286 291 295 299 300
256 256 255 255 255 255 256 257 257 258 259 261 262 264 266 267 268 269 270 271 271 273 273 274 273 271 273 275 274 272 270 270 270 270 270 269 268 268 267 265 263 261 262 263 264 263 260 259 258 257 260 264 271 275 276 283 289 283 277 275 274 271 271 275 279 280 276 273 269 269 276 280 280 280 275 272 274 276 278 282 283 283 282 284 289 291 294 296
255 255 255 254 254 254 255 255 256 258 259 261 262 264 265 268 270 270 271 272 273 274 273 272 272 271 273 273 271 269 268 268 268 268 267 266 266 266 266 265 264 264 264 264 262 260 260 261 260 262 269 277 284 285 284 283 278 271 270 269 268 270 275 282 284 279 275 274 274 277 282 281 277 276 275 276 278 279 282 285 284 279 276 278 282 282 285 290
252 252 253 253 253 254 255 256 257 258 259 261 262 263 265 267 269 271 272 273 273 273 273 272 272 271 273 273 270 268 267 265 265 264 263 264 263 263 263 263 264 264 265 265 263 263 262 261 265 273 281 284 280 274 272 271 267 265 264 264 267 271 278 287 284 275 272 271 274 279 280 278 275 275 277 282 285 286 287 287 284 278 273 274 273 269 274 284
249 250 251 253 253 254 255 256 257 258 259 260 262 263 265 266 268 271 273 273 272 272 273 272 271 271 272 269 267 265 262 261 261 261 260 261 261 262 262 262 263 265 266 264 264 264 263 267 275 281 276 265 257 255 257 258 257 257 257 261 266 271 278 284 278 276 275 276 281 283 279 275 273 274 277 283 286 286 286 284 281 278 272 268 262 261 273 285
247 248 250 252 252 253 255 255 256 258 259 260 262 263 265 267 269 272 274 275 274 272 272 272 272 272 269 265 262 260 258 258 259 258 257 257 258 259 261 262 264 266 264 263 264 262 263 272 282 276 257 251 248 247 248 249 249 251 254 258 264 271 279 280 279 283 284 285 286 286 283 279 276 277 279 282 283 281 281 283 284 281 273 263 259 266 279 288
246 247 248 250 251 253 254 255 256 257 259 260 261 263 265 267 270 273 276 278 276 271 271 272 271 269 266 262 260 257 257 256 252 250 250 252 254 257 259 263 264 263 263 263 264 262 263 268 266 257 253 251 249 247 247 246 246 249 254 256 263 272 278 280 282 283 284 284 283 286 288 284 280 282 283 280 276 273 278 285 285 281 276 267 264 272 281 290
247 246 247 248 250 252 253 255 256 257 258 259 261 263 265 267 270 273 276 279 278 273 270 269 268 266 262 258 255 254 254 251 248 246 246 249 253 255 257 259 259 261 264 264 262 262 263 263 258 252 245 243 247 244 241 242 246 252 255 257 267 276 278 280 282 283 285 284 283 288 295 287 278 280 279 278 278 279 282 282 277 274 273 271 269 273 281 291
247 247 247 248 249 251 253 254 255 256 257 258 262 263 264 266 268 270 275 281 280 276 273 269 265 262 259 253 249 248 249 249 247 246 246 247 249 252 255 256 257 259 261 260 258 260 266 262 251 244 235 233 235 235 235 237 245 253 257 264 271 276 277 278 281 281 281 281 279 284 296 288 279 270 267 276 281 280 278 273 269 267 268 270 271 274 281 289
245 246 247 248 249 251 252 253 254 254 257 259 261 262 263 264 263 267 277 286 281 277 274 264 257 256 254 246 241 239 241 246 246 244 246 246 247 248 251 253 256 257 253 250 246 257 269 254 232 230 222 220 226 232 234 232 240 251 260 272 274 277 278 277 281 278 275 278 275 271 278 282 278 267 266 277 279 272 264 259 261 262 264 267 270 273 279 283
245 245 246 247 249 251 251 252 253 254 257 258 259 260 260 258 258 262 271 281 277 279 269 248 242 246 244 235 233 231 232 239 239 239 241 241 242 242 243 246 250 251 244 239 238 246 253 210 203 214 211 214 222 227 230 231 243 254 264 274 277 280 281 279 280 276 278 283 275 263 267 272 275 272 270 270 264 260 257 252 256 260 263 265 267 271 275 275
244 243 244 245 248 250 250 251 253 254 256 256 257 258 254 252 254 251 243 235 248 256 252 240 231 231 231 224 223 224 226 230 231 232 232 230 230 230 231 235 238 236 232 232 231 226 216 195 197 209 212 217 222 222 231 237 249 260 266 273 276 278 279 281 281 278 281 280 260 253 259 257 276 280 267 247 249 254 254 250 254 259 262 264 265 267 267 264
243 242 241 242 244 247 249 251 253 254 256 255 255 254 248 246 240 223 211 228 236 240 236 233 227 226 227 222 218 219 220 224 228 229 226 219 213 211 212 216 222 225 226 231 229 221 224 220 214 220 222 225 226 227 232 236 247 256 260 267 272 274 275 277 278 281 288 278 257 263 264 251 268 300 271 233 239 243 248 250 256 261 263 264 264 261 257 253
243 242 240 241 244 247 249 252 252 253 255 254 254 251 240 232 221 204 215 234 235 240 228 223 227 227 227 223 219 219 219 218 218 217 214 211 204 200 204 208 213 219 228 237 238 233 233 233 234 240 239 236 238 241 240 240 245 251 256 264 270 275 277 275 272 272 269 267 274 289 271 241 233 253 289 237 228 227 239 246 258 263 263 261 257 252 248 244
246 244 242 241 245 247 249 252 249 248 251 251 250 242 225 212 208 208 212 223 232 241 223 219 227 225 220 218 215 215 215 212 212 211 213 215 213 211 213 217 220 222 233 242 247 250 247 243 243 246 247 245 246 247 246 246 248 254 256 257 260 284 311 285 261 248 241 259 276 280 258 231 238 252 262 262 256 242 232 236 254 262 260 257 253 247 244 239
247 243 242 244 246 248 250 251 247 245 246 241 237 224 208 199 212 215 206 201 215 234 217 214 220 221 221 221 216 211 209 211 214 215 217 218 218 219 219 224 229 230 239 247 250 257 259 255 247 245 248 248 247 247 250 254 258 263 260 252 239 196 47 293 259 284 271 270 275 263 245 238 252 260 262 259 258 253 247 246 254 264 263 255 251 247 244 239
247 244 243 246 247 248 248 246 242 240 238 234 228 212 201 204 223 214 207 212 223 231 219 209 212 218 222 224 223 217 214 217 219 219 221 222 224 228 230 233 237 237 241 248 253 254 259 262 252 246 250 252 250 251 254 259 262 265 265 256 244 229 218 234 234 223 262 290 281 232 216 233 253 262 266 256 251 249 249 250 256 264 263 256 252 247 242 239
253 249 245 245 244 242 241 240 235 231 232 232 223 208 205 212 214 208 212 218 221 221 211 203 210 217 219 220 221 219 218 220 222 224 228 232 236 242 244 243 242 239 237 240 248 253 255 262 263 260 262 264 263 260 255 252 253 258 254 246 247 249 244 243 255 260 270 305 279 223 222 246 258 266 267 260 252 245 243 252 260 264 261 255 251 244 240 239
252 249 244 244 242 236 234 237 235 231 232 228 215 206 211 216 213 217 221 216 214 212 201 197 207 213 216 217 215 215 216 216 219 225 233 242 250 254 253 250 244 240 239 241 248 259 260 265 271 269 266 266 264 260 251 242 245 250 247 247 254 258 250 243 260 271 271 284 267 247 247 256 263 270 266 259 259 257 255 265 267 262 257 252 247 245 242 242
244 244 243 243 240 233 232 235 236 234 231 219 210 211 218 221 220 225 227 218 214 211 206 206 211 215 221 224 222 223 224 223 227 234 241 247 254 256 253 252 252 250 253 256 257 262 263 267 272 269 263 261 254 246 241 240 246 249 252 259 261 254 246 238 244 280 268 257 264 257 258 260 257 264 267 263 264 268 272 276 272 264 259 253 248 245 243 241
238 242 243 243 239 233 233 234 234 233 225 212 211 218 224 226 226 227 228 222 214 211 213 215 217 221 228 231 231 231 229 230 232 235 242 245 248 252 249 249 253 253 257 259 257 258 262 269 274 267 256 253 245 237 238 242 247 251 254 258 252 239 232 222 214 246 249 243 272 260 262 265 257 259 270 273 274 280 281 275 271 268 263 256 249 244 242 241
240 241 244 244 241 236 236 238 236 227 216 211 214 220 225 227 226 225 227 222 210 208 214 217 219 224 229 230 230 229 229 231 233 234 239 241 242 246 246 245 250 253 255 256 254 257 260 264 273 266 248 241 239 237 240 243 244 247 249 248 245 244 239 227 222 228 230 234 273 271 268 269 266 267 272 276 279 281 278 269 266 265 263 258 252 246 242 238
243 242 241 240 240 239 233 230 226 214 208 212 218 219 222 225 223 221 223 219 209 208 216 221 223 226 228 227 226 225 225 226 229 231 234 236 238 243 245 246 248 250 253 255 254 255 253 250 259 262 248 233 237 244 250 252 249 248 247 245 244 243 240 240 239 237 234 222 228 253 268 270 274 277 270 267 276 275 273 277 275 268 261 256 251 245 238 234
245 241 240 236 235 231 220 211 207 204 204 213 218 218 221 225 223 219 218 217 216 218 223 225 225 226 227 228 227 227 226 226 230 234 238 242 243 245 247 249 250 252 254 253 251 249 246 244 252 259 253 244 248 258 264 261 255 251 249 248 250 246 240 240 244 240 238 233 229 228 265 271 272 275 272 270 275 278 283 287 284 272 259 252 246 241 235 233
242 238 237 234 229 224 216 208 204 202 205 212 217 219 223 227 225 219 218 220 222 224 227 227 227 227 228 230 234 235 236 239 242 244 246 248 248 249 251 253 255 255 256 254 251 250 249 250 254 258 259 260 262 264 262 259 253 247 244 246 248 245 240 236 239 246 242 237 240 240 254 267 267 270 276 278 280 285 288 286 282 270 258 249 241 236 232 232
243 242 237 227 220 217 215 212 210 208 207 212 217 220 224 227 226 221 219 221 221 223 227 230 231 231 232 234 237 239 242 247 250 250 251 252 253 253 254 256 258 258 258 256 254 250 248 248 251 256 262 264 263 259 255 252 246 241 241 244 244 244 245 245 246 250 246 238 237 231 241 261 264 269 275 278 280 282 283 281 278 273 263 245 232 230 231 233
249 248 236 222 215 216 215 215 217 216 213 213 217 220 222 225 226 224 221 220 221 224 230 234 235 234 235 237 240 244 247 249 253 255 255 255 255 255 255 256 258 258 257 256 252 248 245 242 241 249 262 263 255 248 240 237 236 236 239 242 243 245 247 246 246 248 248 246 241 235 247 256 260 267 269 273 276 277 280 282 279 275 264 245 233 233 235 237
246 243 236 231 229 228 226 226 224 221 219 217 219 221 221 223 225 226 226 226 228 233 236 237 237 237 239 242 246 250 250 251 254 256 256 255 254 254 254 254 254 254 254 254 254 253 252 247 240 236 239 245 245 239 235 239 240 240 243 244 246 248 247 247 249 243 237 244 241 239 252 259 262 267 270 275 280 282 285 284 277 269 256 242 236 237 242 252
236 232 231 233 233 231 231 230 226 223 222 221 223 225 224 223 226 229 233 234 236 241 242 242 243 245 247 249 251 252 251 251 252 253 255 256 255 254 253 252 252 251 252 254 256 256 253 249 245 242 242 245 250 253 255 256 253 249 252 255 256 255 252 251 248 241 241 250 248 250 258 263 266 271 274 278 280 283 285 282 273 261 247 243 248 256 265 273
231 229 228 228 226 225 226 225 224 225 225 225 229 234 234 235 237 239 241 242 243 247 250 249 250 250 251 252 253 254 255 254 253 253 254 255 255 254 254 253 253 252 252 252 251 250 246 244 245 244 244 247 253 258 259 260 260 258 258 259 259 259 257 253 251 252 255 254 254 261 265 266 270 274 275 277 278 279 280 279 272 261 257 261 269 274 277 279
238 236 233 228 226 225 224 224 225 227 228 229 232 236 238 239 240 243 246 248 250 252 252 250 249 248 251 254 255 257 258 256 254 253 253 254 254 254 253 253 252 251 250 248 247 247 248 251 253 253 254 256 259 264 266 266 267 266 264 263 262 260 258 256 256 257 256 250 256 268 269 266 270 274 275 276 276 274 272 273 270 268 270 273 274 275 277 278
247 245 243 239 238 238 237 236 236 235 235 236 237 239 241 242 243 245 248 251 251 250 249 250 249 247 250 253 254 255 255 253 252 253 254 253 253 253 253 253 254 254 253 252 252 251 253 256 258 260 262 263 264 265 266 266 266 266 266 267 266 261 257 256 256 257 256 255 261 268 268 266 270 274 274 275 275 273 272 273 272 272 273 273 273 274 276 277
253 251 251 248 246 247 247 246 246 246 243 241 242 243 243 244 246 246 245 246 247 248 249 250 251 252 255 257 256 255 255 254 256 258 258 256 254 255 256 256 258 259 259 257 255 252 251 253 255 257 258 260 261 261 260 258 258 260 263 264 263 260 258 258 260 260 260 261 265 268 267 268 272 276 277 277 276 275 275 273 272 272 272 272 272 273 274 275
253 253 253 251 250 250 249 248 247 248 247 244 245 247 245 247 250 248 244 244 245 247 249 251 253 257 260 258 256 257 258 259 260 261 261 260 258 258 259 260 261 261 259 257 254 251 251 251 251 253 254 255 258 258 257 261 265 269 266 262 260 261 263 263 264 265 265 267 269 266 264 270 277 280 281 279 277 275 274 272 272 271 271 271 271 272 272 272
251 251 250 250 251 250 248 247 246 246 247 247 248 250 250 252 254 250 247 246 245 246 250 253 255 257 257 255 256 260 262 261 260 260 259 258 257 256 256 257 258 258 256 256 255 254 254 252 251 250 249 252 257 258 260 267 274 270 263 262 263 265 265 265 266 269 270 269 268 265 267 275 281 281 279 278 276 274 273 272 272 271 270 270 271 272 272 272
Height
3177 3177 3177 3178 3178 3178 3179 3179 3179 3179 3179 3179 3179 3180 3180 3180 3180 3180 3180 3180 3179 3179 3179 3179 3180 3180 3179 3179 3179 3179 3179 3178 3178 3178 3178 3178 3178 3178 3177 3177 3177 3177 3177 3177 3177 3177 3177 3176 3176 3176 3176 3175 3175 3175 3175 3175 3175 3175 3175 3175 3175 3174 3174 3174 3174 3173 3173 3173 3173 3173 3172 3171 3172 3171 3170 3168 3168 3168 3168 3168 3167 3166 3165 3163 3162 3162 3161 3162
3175 3176 3176 3176 3177 3177 3177 3178 3178 3178 3178 3178 3178 3178 3178 3178 3178 3179 3179 3178 3178 3178 3178 3178 3178 3178 3178 3178 3178 3178 3178 3177 3177 3177 3177 3177 3176 3176 3176 3176 3176 3176 3176 3176 3176 3176 3176 3175 3175 3175 3174 3174 3174 3174 3174 3174 3173 3173 3173 3173 3173 3173 3173 3173 3173 3172 3172 3172 3172 3172 3171 3170 3170 3169 3168 3167 3166 3166 3166 3166 3166 3165 3165 3163 3161 3161 3160 3161
3174 3175 3175 3175 3176 3176 3176 3176 3176 3176 3177 3177 3177 3177 3177 3177 3177 3177 3177 3177 3177 3177 3177 3177 3177 3177 3177 3177 3177 3177 3177 3176 3176 3176 3176 3176 3176 3175 3175 3175 3175 3175 3175 3175 3175 3175 3175 3174 3174 3173 3173 3173 3173 3173 3173 3173 3172 3172 3172 3172 3172 3172 3172 3172 3172 3171 3170 3170 3170 3170 3170 3169 3169 3168 3167 3166 3164 3165 3165 3164 3164 3164 3164 3162 3161 3160 3159 3159
3173 3173 3174 3174 3174 3174 3174 3175 3175 3175 3175 3175 3175 3176 3176 3176 3176 3176 3176 3176 3175 3175 3175 3176 3176 3176 3176 3176 3175 3175 3175 3175 3175 3175 3174 3175 3175 3175 3174 3174 3174 3174 3174 3174 3174 3174 3173 3173 3173 3172 3172 3172 3172 3172 3172 3172 3171 3171 3171 3171 3171 3171 3171 3171 3170 3170 3169 3169 3169 3168 3168 3167 3167 3166 3166 3165 3163 3164 3164 3162 3162 3162 3162 3161 3160 3158 3157 3156
3171 3172 3172 3172 3172 3173 3173 3173 3173 3173 3173 3174 3174 3174 3174 3174 3174 3174 3174 3174 3174 3174 3174 3174 3174 3174 3174 3174 3174 3174 3174 3174 3174 3173 3174 3174 3174 3174 3173 3173 3173 3173 3173 3173 3173 3173 3172 3172 3172 3172 3172 3172 3171 3172 3171 3171 3170 3170 3170 3170 3170 3169 3170 3170 3169 3169 3169 3168 3167 3166 3166 3165 3165 3165 3165 3163 3162 3162 3162 3161 3160 3160 3160 3159 3157 3156 3155 3155
3169 3170 3170 3170 3171 3171 3171 3171 3171 3172 3172 3172 3172 3172 3172 3172 3172 3172 3172 3172 3172 3172 3172 3173 3173 3173 3173 3173 3173 3173 3173 3173 3172 3172 3172 3172 3172 3172 3172 3172 3172 3172 3172 3172 3172 3172 3171 3171 3171 3171 3171 3171 3170 3171 3170 3169 3169 3168 3169 3169 3169 3168 3168 3169 3168 3168 3167 3166 3166 3165 3163 3163 3163 3163 3163 3162 3161 3161 3160 3159 3159 3158 3157 3156 3155 3155 3154 3153
3167 3168 3168 3169 3169 3169 3169 3169 3170 3170 3170 3170 3170 3170 3170 3171 3171 3171 3171 3170 3170 3171 3171 3171 3171 3171 3171 3171 3171 3171 3172 3171 3171 3171 3171 3171 3171 3171 3171 3171 3170 3170 3171 3171 3170 3170 3170 3170 3170 3170 3169 3169 3169 3169 3168 3168 3167 3167 3167 3167 3167 3166 3166 3166 3166 3166 3165 3164 3163 3162 3161 3162 3162 3160 3161 3161 3160 3159 3159 3158 3157 3156 3154 3153 3153 3153 3152 3151
3165 3166 3166 3167 3167 3167 3167 3167 3168 3168 3168 3168 3168 3168 3168 3169 3169 3169 3169 3169 3169 3169 3169 3169 3169 3169 3169 3169 3169 3170 3170 3170 3169 3169 3170 3169 3169 3169 3169 3169 3169 3169 3169 3169 3169 3168 3168 3168 3168 3168 3168 3168 3167 3167 3167 3166 3165 3165 3165 3165 3164 3164 3164 3164 3164 3164 3163 3162 3161 3160 3160 3161 3160 3158 3159 3159 3159 3158 3157 3156 3154 3153 3152 3152 3152 3151 3150 3149
3163 3164 3164 3164 3165 3165 3165 3165 3166 3166 3166 3166 3166 3166 3166 3167 3167 3167 3167 3167 3167 3167 3167 3167 3167 3167 3167 3167 3167 3168 3169 3169 3168 3168 3168 3168 3168 3167 3167 3167 3167 3167 3167 3167 3167 3167 3166 3166 3166 3166 3166 3165 3165 3165 3165 3164 3163 3163 3162 3162 3162 3162 3162 3162 3161 3161 3160 3159 3159 3158 3158 3159 3158 3157 3157 3158 3157 3156 3156 3154 3152 3151 3150 3150 3149 3148 3147 3146
3161 3161 3162 3162 3162 3163 3163 3163 3163 3164 3164 3164 3164 3164 3164 3165 3165 3165 3165 3165 3165 3165 3165 3165 3165 3165 3165 3166 3165 3166 3167 3167 3166 3166 3166 3166 3166 3166 3165 3165 3165 3165 3165 3165 3165 3164 3164 3164 3164 3164 3164 3163 3163 3162 3162 3162 3161 3161 3160 3159 3159 3159 3159 3159 3159 3159 3158 3157 3157 3156 3156 3157 3156 3155 3156 3156 3155 3155 3153 3151 3150 3149 3148 3147 3146 3145 3144 3144
3158 3159 3159 3160 3160 3160 3161 3161 3161 3161 3161 3161 3162 3162 3162 3162 3162 3163 3163 3163 3163 3163 3163 3163 3163 3163 3163 3163 3163 3164 3165 3165 3164 3164 3164 3164 3164 3163 3163 3163 3163 3162 3163 3163 3163 3162 3162 3162 3162 3162 3162 3161 3161 3160 3160 3160 3159 3159 3158 3157 3158 3157 3157 3157 3156 3156 3156 3155 3155 3154 3154 3155 3154 3154 3155 3155 3153 3152 3151 3148 3147 3146 3145 3144 3143 3142 3141 3141
3155 3156 3157 3157 3158 3158 3158 3159 3159 3159 3159 3159 3159 3160 3160 3160 3160 3160 3160 3161 3161 3161 3161 3161 3161 3161 3161 3161 3161 3162 3162 3162 3162 3162 3162 3162 3161 3161 3161 3161 3160 3160 3160 3160 3160 3160 3160 3160 3160 3160 3160 3159 3159 3158 3158 3158 3157 3157 3156 3155 3155 3155 3155 3156 3155 3154 3154 3153 3152 3152 3152 3152 3152 3152 3153 3152 3151 3150 3148 3145 3143 3143 3142 3141 3140 3139 3139 3138
3153 3154 3154 3155 3155 3156 3156 3156 3156 3156 3157 3157 3157 3157 3158 3158 3158 3158 3158 3158 3158 3158 3158 3158 3158 3158 3158 3158 3159 3160 3159 3159 3159 3159 3160 3160 3159 3159 3158 3158 3158 3158 3158 3158 3158 3158 3158 3157 3157 3157 3157 3157 3157 3157 3156 3155 3155 3155 3154 3153 3153 3153 3153 3154 3153 3152 3152 3151 3150 3149 3148 3149 3151 3151 3151 3149 3148 3147 3145 3142 3141 3140 3139 3138 3137 3136 3136 3135
3150 3151 3152 3152 3153 3153 3153 3154 3154 3154 3154 3154 3155 3155 3155 3155 3155 3155 3155 3155 3155 3156 3156 3156 3156 3156 3155 3156 3157 3157 3157 3157 3156 3157 3157 3157 3157 3157 3156 3156 3155 3155 3155 3156 3156 3156 3155 3155 3155 3155 3155 3155 3155 3154 3154 3153 3153 3153 3152 3151 3151 3151 3151 3152 3151 3150 3149 3149 3148 3147 3145 3146 3148 3149 3148 3146 3145 3145 3142 3139 3138 3138 3137 3136 3135 3134 3133 3133
3148 3148 3149 3149 3150 3150 3151 3151 3151 3152 3152 3152 3152 3152 3153 3153 3153 3153 3153 3153 3153 3153 3153 3153 3153 3153 3152 3153 3154 3154 3154 3154 3154 3154 3154 3154 3154 3154 3154 3153 3153 3153 3153 3153 3153 3153 3153 3152 3152 3152 3152 3153 3153 3152 3151 3151 3151 3151 3150 3149 3150 3149 3148 3150 3149 3147 3147 3146 3146 3145 3143 3143 3145 3147 3146 3144 3142 3142 3139 3137 3136 3136 3135 3134 3133 3132 3131 3131
3145 3145 3146 3147 3147 3147 3148 3148 3149 3149 3149 3149 3149 3149 3150 3150 3150 3150 3150 3150 3151 3151 3151 3150 3150 3150 3149 3150 3151 3151 3151 3151 3151 3151 3150 3150 3150 3151 3151 3151 3150 3150 3150 3150 3150 3150 3150 3150 3150 3150 3150 3150 3150 3150 3149 3149 3149 3149 3148 3147 3147 3147 3146 3147 3147 3145 3144 3144 3144 3143 3141 3140 3142 3144 3144 3141 3139 3138 3137 3135 3134 3134 3133 3132 3131 3130 3129 3129
3142 3142 3143 3143 3144 3144 3145 3145 3146 3147 3147 3147 3147 3147 3147 3147 3147 3148 3148 3148 3148 3148 3148 3147 3148 3147 3146 3147 3148 3148 3148 3147 3147 3148 3147 3147 3147 3148 3148 3148 3148 3148 3148 3148 3147 3147 3147 3147 3147 3147 3148 3148 3148 3148 3148 3147 3147 3147 3146 3145 3145 3145 3144 3143 3144 3143 3142 3142 3141 3140 3139 3138 3139 3141 3140 3138 3137 3136 3135 3134 3132 3131 3131 3130 3129 3128 3127 3126
3139 3139 3140 3140 3141 3141 3141 3142 3143 3144 3144 3144 3144 3144 3144 3144 3144 3144 3144 3144 3145 3145 3145 3144 3145 3144 3143 3144 3145 3145 3145 3144 3144 3145 3144 3144 3144 3144 3145 3145 3145 3145 3145 3145 3145 3145 3145 3145 3145 3145 3145 3145 3145 3146 3145 3144 3145 3145 3144 3143 3142 3142 3141 3140 3140 3141 3140 3139 3139 3138 3137 3137 3137 3138 3137 3136 3135 3134 3133 3132 3131 3129 3128 3128 3127 3127 3126 3125
3136 3136 3137 3137 3138 3138 3139 3139 3140 3140 3141 3141 3141 3141 3141 3141 3141 3141 3141 3141 3141 3142 3142 3141 3142 3141 3140 3142 3142 3141 3141 3141 3141 3142 3142 3141 3141 3141 3142 3142 3142 3143 3143 3143 3143 3143 3143 3142 3142 3142 3142 3142 3143 3143 3142 3141 3142 3142 3141 3140 3139 3138 3137 3137 3138 3138 3138 3136 3136 3136 3135 3135 3136 3136 3134 3134 3134 3132 3131 3130 3129 3128 3126 3126 3126 3125 3125 3124
3132 3133 3134 3134 3134 3135 3135 3136 3137 3137 3138 3138 3138 3138 3138 3138 3137 3137 3138 3138 3138 3138 3138 3137 3138 3137 3138 3139 3139 3138 3138 3138 3138 3139 3139 3138 3138 3138 3138 3139 3139 3139 3140 3140 3140 3140 3140 3139 3137 3138 3139 3140 3141 3140 3139 3139 3139 3139 3139 3138 3137 3136 3134 3135 3136 3136 3135 3134 3133 3133 3133 3133 3134 3133 3132 3131 3131 3130 3129 3128 3127 3126 3125 3124 3124 3124 3123 3122
3129 3130 3130 3131 3131 3132 3132 3133 3134 3134 3135 3135 3135 3135 3135 3135 3134 3134 3134 3134 3134 3135 3134 3134 3134 3134 3135 3135 3134 3135 3135 3135 3135 3135 3135 3135 3135 3135 3135 3135 3135 3136 3137 3138 3137 3137 3137 3134 3134 3137 3138 3138 3138 3137 3137 3137 3136 3136 3136 3135 3135 3133 3132 3133 3134 3133 3133 3132 3131 3131 3130 3130 3131 3130 3129 3128 3127 3126 3126 3125 3124 3124 3123 3123 3123 3122 3121 3121
3125 3126 3127 3128 3128 3128 3129 3130 3131 3131 3132 3132 3132 3132 3132 3132 3131 3131 3131 3129 3130 3131 3130 3130 3129 3130 3132 3131 3130 3131 3130 3131 3131 3131 3132 3131 3131 3131 3131 3131 3132 3133 3134 3134 3134 3134 3133 3131 3133 3135 3135 3134 3134 3134 3134 3134 3134 3134 3134 3133 3132 3131 3131 3132 3132 3131 3131 3130 3129 3129 3128 3128 3129 3127 3127 3126 3124 3123 3123 3122 3122 3121 3121 3121 3120 3120 3119 3118
3122 3122 3123 3124 3125 3125 3126 3127 3128 3128 3129 3129 3129 3129 3129 3129 3128 3128 3127 3125 3126 3127 3126 3126 3125 3126 3128 3127 3127 3127 3126 3127 3128 3127 3128 3128 3127 3128 3127 3128 3130 3130 3130 3130 3130 3130 3129 3130 3132 3132 3131 3131 3131 3131 3131 3131 3131 3132 3132 3131 3130 3130 3131 3131 3130 3130 3129 3128 3127 3126 3125 3125 3125 3124 3124 3124 3122 3121 3121 3120 3120 3119 3119 3118 3118 3118 3117 3116
3118 3118 3119 3120 3121 3121 3122 3123 3124 3125 3125 3126 3126 3126 3126 3126 3125 3125 3124 3122 3120 3122 3123 3122 3121 3121 3122 3123 3123 3123 3122 3123 3124 3124 3124 3124 3124 3125 3124 3126 3126 3126 3127 3127 3127 3127 3126 3128 3129 3129 3130 3129 3129 3129 3129 3129 3130 3130 3130 3129 3129 3129 3130 3129 3129 3128 3127 3126 3125 3124 3121 3119 3121 3120 3120 3121 3119 3119 3119 3118 3118 3117 3116 3116 3116 3115 3114 3114
3114 3115 3115 3116 3117 3117 3119 3119 3120 3121 3122 3122 3123 3123 3123 3123 3123 3122 3122 3119 3114 3116 3119 3118 3117 3117 3118 3119 3119 3119 3119 3119 3120 3120 3121 3121 3121 3121 3122 3123 3123 3123 3124 3125 3125 3123 3123 3126 3126 3126 3128 3128 3128 3128 3128 3128 3129 3129 3128 3128 3128 3128 3128 3127 3127 3126 3125 3123 3122 3123 3121 3115 3115 3117 3117 3117 3117 3116 3117 3116 3116 3115 3114 3114 3114 3113 3112 3112
3111 3112 3112 3112 3113 3113 3115 3116 3117 3118 3118 3120 3120 3120 3120 3120 3121 3120 3121 3118 3109 3109 3114 3114 3113 3112 3112 3115 3115 3115 3115 3114 3116 3117 3117 3118 3118 3119 3119 3119 3119 3120 3122 3122 3122 3120 3120 3122 3123 3123 3124 3125 3126 3126 3126 3127 3127 3127 3127 3127 3127 3127 3126 3126 3125 3125 3123 3122 3121 3121 3122 3115 3110 3112 3114 3114 3115 3114 3114 3113 3113 3113 3112 3112 3112 3111 3111 3111
3106 3108 3108 3109 3109 3109 3111 3112 3113 3114 3115 3117 3117 3117 3118 3118 3119 3118 3120 3118 3106 3103 3107 3108 3108 3108 3108 3110 3110 3111 3111 3110 3112 3113 3113 3114 3115 3116 3116 3116 3117 3118 3119 3119 3119 3118 3118 3119 3120 3121 3122 3123 3124 3124 3125 3126 3126 3126 3126 3126 3126 3125 3125 3124 3124 3124 3121 3120 3119 3119 3123 3116 3105 3107 3111 3111 3112 3111 3110 3111 3110 3110 3110 3110 3110 3110 3110 3111
3102 3104 3104 3105 3105 3106 3108 3108 3109 3111 3112 3113 3113 3114 3115 3115 3117 3116 3120 3118 3104 3099 3103 3104 3104 3104 3104 3106 3106 3107 3108 3107 3109 3109 3110 3111 3111 3112 3113 3113 3114 3115 3116 3116 3116 3117 3117 3117 3118 3119 3121 3121 3122 3124 3124 3125 3125 3124 3125 3124 3124 3124 3123 3123 3123 3122 3120 3119 3116 3116 3122 3116 3102 3102 3108 3108 3108 3108 3107 3108 3107 3107 3108 3108 3109 3109 3109 3109
3098 3099 3100 3102 3102 3102 3104 3104 3105 3108 3109 3110 3110 3111 3112 3113 3114 3115 3119 3115 3101 3097 3101 3102 3102 3102 3102 3103 3103 3104 3105 3106 3107 3107 3108 3108 3108 3110 3110 3111 3112 3112 3113 3113 3114 3116 3115 3116 3117 3118 3119 3120 3121 3122 3122 3123 3123 3123 3123 3122 3123 3122 3121 3121 3121 3120 3120 3116 3112 3114 3119 3116 3102 3098 3104 3105 3104 3105 3104 3105 3106 3106 3106 3106 3107 3107 3107 3107
3093 3095 3096 3097 3096 3097 3099 3099 3102 3105 3106 3106 3107 3108 3109 3109 3110 3113 3113 3105 3096 3097 3099 3099 3100 3100 3100 3101 3101 3102 3103 3104 3105 3105 3106 3106 3107 3108 3108 3109 3110 3110 3111 3112 3113 3114 3114 3115 3116 3116 3118 3119 3120 3120 3120 3121 3121 3121 3122 3121 3122 3121 3119 3120 3118 3119 3120 3112 3107 3111 3114 3115 3106 3097 3099 3101 3101 3103 3103 3104 3104 3104 3104 3104 3105 3105 3105 3105
3089 3090 3092 3092 3092 3093 3094 3096 3099 3102 3102 3103 3104 3105 3105 3105 3106 3107 3100 3094 3094 3096 3095 3097 3098 3097 3098 3098 3099 3100 3101 3102 3103 3104 3104 3105 3105 3106 3107 3108 3108 3109 3110 3111 3111 3112 3112 3113 3113 3114 3116 3116 3117 3118 3118 3119 3119 3120 3120 3120 3120 3119 3118 3118 3116 3118 3118 3108 3105 3109 3110 3112 3107 3098 3098 3100 3101 3102 3102 3103 3103 3103 3103 3102 3102 3103 3103 3104
3084 3085 3087 3088 3088 3089 3090 3092 3096 3098 3098 3099 3100 3100 3099 3100 3098 3093 3088 3090 3094 3092 3091 3094 3095 3095 3096 3096 3097 3098 3099 3100 3101 3102 3103 3103 3104 3105 3106 3106 3107 3108 3109 3109 3110 3110 3110 3111 3112 3112 3113 3114 3115 3115 3116 3117 3117 3118 3118 3118 3119 3119 3118 3117 3115 3116 3114 3107 3105 3108 3108 3107 3101 3097 3099 3100 3100 3101 3101 3102 3102 3101 3101 3101 3101 3101 3102 3102
3079 3080 3082 3083 3084 3084 3086 3089 3092 3093 3094 3096 3096 3093 3093 3091 3084 3079 3082 3088 3090 3088 3088 3091 3091 3093 3094 3094 3095 3096 3096 3098 3099 3100 3101 3101 3102 3103 3104 3104 3105 3106 3107 3108 3109 3109 3108 3108 3109 3110 3110 3111 3112 3112 3114 3114 3115 3115 3115 3116 3117 3118 3120 3119 3116 3114 3110 3105 3105 3106 3107 3103 3097 3096 3097 3097 3099 3100 3100 3100 3100 3100 3100 3099 3100 3100 3100 3101
3073 3074 3077 3078 3079 3080 3082 3085 3087 3088 3091 3092 3091 3088 3086 3081 3073 3074 3081 3084 3086 3087 3087 3088 3089 3091 3092 3092 3093 3094 3095 3096 3096 3098 3098 3099 3100 3100 3100 3102 3102 3104 3105 3107 3107 3107 3106 3105 3106 3108 3108 3109 3110 3111 3112 3113 3113 3113 3113 3114 3113 3114 3117 3115 3111 3110 3107 3104 3104 3104 3104 3099 3094 3094 3095 3095 3097 3098 3098 3099 3098 3098 3098 3098 3098 3098 3099 3099
3067 3069 3071 3072 3073 3076 3078 3080 3083 3084 3085 3086 3085 3082 3078 3072 3069 3073 3077 3080 3083 3085 3085 3086 3088 3089 3089 3090 3091 3092 3093 3094 3094 3095 3096 3096 3097 3097 3098 3099 3100 3102 3103 3105 3105 3105 3104 3102 3103 3105 3106 3107 3108 3109 3111 3111 3111 3110 3110 3110 3109 3109 3111 3110 3107 3106 3105 3105 3103 3100 3098 3094 3093 3093 3093 3094 3095 3096 3097 3097 3097 3097 3097 3096 3097 3097 3097 3097
3063 3064 3065 3066 3068 3071 3073 3076 3077 3079 3080 3079 3077 3073 3068 3067 3069 3071 3073 3077 3080 3081 3083 3085 3085 3086 3087 3087 3088 3090 3091 3092 3092 3093 3093 3094 3094 3094 3095 3096 3098 3099 3100 3102 3103 3103 3101 3099 3100 3103 3104 3105 3107 3107 3109 3109 3108 3107 3106 3106 3106 3107 3108 3107 3106 3104 3105 3104 3098 3094 3093 3092 3092 3090 3090 3092 3093 3094 3095 3095 3096 3096 3095 3095 3095 3095 3095 3095
3059 3060 3061 3062 3064 3066 3068 3070 3072 3073 3074 3072 3068 3065 3064 3066 3069 3070 3072 3074 3076 3078 3080 3081 3082 3083 3084 3085 3086 3087 3089 3090 3090 3091 3091 3092 3091 3090 3091 3093 3095 3096 3098 3100 3100 3100 3099 3097 3097 3100 3101 3102 3104 3105 3105 3105 3105 3104 3103 3103 3104 3105 3105 3106 3106 3104 3105 3103 3095 3090 3090 3090 3089 3087 3086 3089 3091 3092 3093 3093 3094 3094 3093 3093 3093 3093 3093 3093
3054 3056 3056 3057 3060 3062 3064 3066 3067 3068 3068 3066 3062 3061 3062 3064 3067 3069 3070 3072 3073 3075 3076 3077 3079 3081 3081 3083 3084 3085 3087 3087 3088 3089 3089 3089 3088 3087 3089 3091 3092 3093 3095 3097 3097 3097 3097 3095 3094 3095 3097 3099 3100 3101 3101 3101 3102 3101 3101 3101 3102 3102 3102 3103 3103 3102 3102 3099 3092 3088 3087 3085 3085 3084 3084 3087 3088 3089 3090 3091 3091 3091 3091 3091 3090 3091 3091 3091
3050 3051 3051 3053 3055 3057 3059 3061 3062 3063 3062 3060 3057 3057 3058 3060 3064 3066 3067 3069 3070 3072 3073 3074 3076 3078 3079 3080 3082 3083 3085 3085 3086 3086 3086 3086 3086 3085 3087 3088 3090 3091 3092 3094 3094 3095 3096 3094 3092 3091 3094 3096 3096 3096 3096 3097 3099 3099 3099 3099 3098 3099 3099 3098 3098 3096 3096 3095 3091 3089 3085 3081 3080 3081 3083 3085 3086 3087 3088 3089 3089 3089 3089 3089 3088 3089 3089 3089
3045 3046 3046 3048 3051 3053 3055 3056 3057 3057 3054 3052 3051 3052 3054 3056 3059 3062 3064 3066 3067 3069 3070 3071 3073 3074 3075 3077 3079 3080 3082 3082 3083 3084 3083 3083 3083 3084 3085 3086 3087 3089 3090 3091 3092 3093 3094 3093 3090 3089 3090 3091 3091 3092 3092 3094 3096 3096 3096 3095 3095 3096 3096 3095 3093 3092 3092 3092 3091 3089 3084 3078 3078 3079 3080 3082 3084 3085 3086 3086 3087 3087 3086 3087 3086 3086 3086 3086
3041 3042 3042 3044 3047 3049 3050 3050 3050 3049 3048 3047 3048 3049 3051 3053 3056 3059 3061 3062 3064 3065 3067 3068 3070 3071 3073 3074 3076 3077 3079 3079 3080 3081 3081 3080 3081 3082 3083 3083 3084 3086 3087 3088 3089 3090 3091 3090 3088 3087 3086 3086 3087 3088 3089 3090 3091 3092 3092 3091 3092 3092 3092 3092 3090 3088 3088 3088 3088 3086 3081 3077 3077 3077 3077 3080 3081 3082 3083 3084 3084 3084 3084 3084 3084 3084 3084 3084
3037 3037 3038 3041 3043 3045 3046 3045 3044 3044 3043 3043 3044 3046 3048 3050 3052 3056 3057 3059 3061 3062 3063 3065 3067 3068 3069 3070 3072 3074 3075 3076 3076 3077 3077 3078 3079 3080 3080 3081 3082 3083 3084 3085 3086 3087 3088 3088 3086 3084 3083 3083 3084 3085 3086 3086 3087 3088 3088 3087 3088 3088 3088 3088 3086 3084 3085 3084 3083 3083 3079 3075 3075 3075 3075 3077 3078 3079 3080 3080 3080 3081 3081 3082 3082 3082 3081 3081
3033 3034 3035 3036 3038 3040 3040 3040 3040 3041 3040 3040 3041 3043 3045 3047 3049 3052 3054 3055 3056 3058 3060 3061 3062 3064 3065 3067 3069 3070 3072 3072 3072 3073 3074 3075 3076 3077 3077 3078 3079 3080 3081 3081 3082 3083 3084 3084 3083 3081 3081 3081 3081 3081 3082 3083 3083 3083 3083 3083 3083 3083 3083 3084 3082 3081 3081 3079 3080 3081 3077 3072 3073 3074 3074 3074 3075 3076 3077 3077 3078 3078 3078 3079 3078 3078 3078 3078
3029 3031 3033 3033 3034 3036 3035 3035 3036 3037 3037 3038 3038 3039 3041 3043 3045 3047 3049 3051 3052 3054 3056 3057 3059 3061 3063 3064 3066 3066 3068 3069 3069 3070 3071 3072 3072 3073 3074 3075 3076 3076 3077 3077 3078 3079 3079 3080 3080 3080 3080 3079 3078 3078 3078 3078 3078 3078 3079 3079 3079 3080 3080 3080 3078 3079 3077 3075 3076 3077 3071 3069 3071 3072 3072 3072 3072 3074 3074 3075 3076 3076 3076 3075 3075 3074 3075 3074
3025 3027 3029 3030 3031 3032 3032 3033 3034 3034 3035 3035 3036 3037 3038 3040 3042 3043 3045 3047 3049 3051 3053 3054 3056 3058 3060 3061 3062 3062 3064 3065 3066 3066 3066 3067 3068 3069 3071 3072 3072 3073 3073 3074 3075 3075 3075 3076 3076 3077 3076 3074 3073 3073 3074 3074 3076 3075 3075 3076 3076 3077 3076 3075 3075 3075 3072 3071 3072 3071 3067 3067 3070 3070 3069 3070 3070 3071 3072 3072 3073 3073 3072 3071 3071 3071 3071 3071
3020 3022 3023 3025 3027 3027 3028 3030 3031 3031 3032 3033 3033 3034 3035 3037 3039 3041 3042 3044 3046 3047 3049 3052 3054 3055 3056 3057 3058 3059 3060 3061 3062 3062 3061 3063 3064 3066 3067 3068 3068 3069 3070 3070 3071 3072 3071 3071 3071 3071 3070 3069 3068 3069 3071 3072 3072 3072 3072 3072 3073 3072 3072 3071 3070 3068 3068 3069 3068 3066 3065 3065 3067 3067 3066 3067 3068 3068 3068 3069 3069 3069 3069 3068 3068 3068 3067 3066
3016 3017 3018 3020 3021 3022 3022 3024 3026 3027 3028 3030 3030 3030 3032 3034 3036 3038 3039 3040 3042 3044 3046 3048 3050 3051 3051 3053 3054 3055 3056 3057 3058 3057 3058 3059 3061 3062 3063 3064 3064 3065 3066 3066 3067 3068 3067 3066 3066 3066 3066 3065 3066 3066 3068 3068 3068 3068 3068 3068 3068 3067 3066 3066 3064 3064 3066 3066 3061 3061 3064 3063 3063 3064 3063 3063 3065 3066 3065 3066 3066 3066 3066 3065 3065 3064 3063 3062
3013 3014 3016 3017 3017 3017 3018 3020 3022 3023 3025 3026 3027 3028 3029 3031 3032 3034 3035 3037 3039 3041 3043 3044 3045 3047 3048 3050 3051 3052 3052 3053 3053 3053 3054 3056 3057 3058 3059 3060 3061 3061 3062 3062 3063 3064 3063 3062 3062 3063 3062 3063 3063 3063 3064 3064 3064 3065 3065 3064 3063 3063 3061 3060 3060 3061 3062 3060 3056 3058 3062 3059 3058 3059 3060 3060 3062 3062 3063 3063 3063 3062 3061 3060 3059 3058 3057 3056
3010 3011 3013 3014 3014 3015 3016 3018 3019 3021 3022 3023 3023 3024 3025 3026 3028 3030 3032 3034 3035 3037 3039 3039 3040 3043 3045 3047 3048 3048 3047 3048 3047 3048 3051 3053 3054 3055 3055 3055 3056 3056 3057 3058 3058 3060 3059 3057 3058 3059 3058 3059 3060 3060 3060 3061 3060 3059 3059 3058 3058 3057 3056 3056 3056 3056 3056 3054 3053 3056 3056 3053 3053 3055 3056 3058 3058 3058 3059 3059 3058 3057 3056 3055 3054 3052 3052 3051
3006 3007 3009 3010 3011 3012 3014 3015 3016 3017 3019 3020 3020 3020 3022 3022 3024 3027 3029 3030 3031 3033 3035 3035 3037 3040 3042 3043 3044 3042 3042 3043 3044 3046 3049 3050 3050 3051 3051 3051 3051 3052 3052 3053 3054 3055 3055 3054 3054 3055 3055 3055 3055 3056 3057 3056 3055 3055 3054 3052 3051 3052 3052 3051 3050 3051 3052 3050 3050 3052 3050 3046 3048 3051 3052 3053 3053 3052 3052 3052 3051 3050 3049 3048 3048 3047 3047 3046
3001 3003 3005 3006 3007 3008 3010 3011 3013 3014 3015 3016 3015 3016 3018 3019 3021 3024 3025 3026 3028 3030 3031 3032 3035 3037 3038 3038 3037 3036 3038 3041 3042 3043 3046 3046 3046 3047 3047 3046 3047 3048 3048 3049 3049 3050 3051 3050 3051 3052 3052 3050 3051 3053 3053 3052 3052 3050 3046 3043 3045 3047 3045 3044 3044 3046 3046 3045 3046 3047 3043 3040 3044 3047 3046 3047 3047 3046 3045 3045 3044 3044 3044 3043 3042 3042 3042 3041
2997 2998 3000 3001 3002 3003 3005 3007 3008 3009 3009 3010 3012 3013 3015 3016 3019 3020 3021 3022 3024 3026 3027 3029 3031 3032 3032 3032 3031 3032 3036 3038 3039 3040 3041 3041 3041 3041 3042 3042 3042 3043 3044 3045 3046 3046 3047 3047 3047 3049 3048 3046 3048 3049 3048 3050 3050 3042 3035 3036 3041 3041 3039 3039 3039 3040 3040 3040 3039 3038 3035 3037 3042 3043 3041 3041 3041 3040 3040 3040 3039 3039 3038 3038 3037 3037 3037 3036